Skip Page Navigation
NASA JPL Caltech
NASA Logo - Jet Propulsion Laboratory + View the NASA Portal
+ Center for Near-Earth Object Studies
JPL Home Earth Solar System Stars & Galaxies Technology
JPL Solar System Dynamics
BODIES ORBITS EPHEMERIDES TOOLS PHYSICAL DATA DISCOVERY FAQ SITE MAP
JPL Small-Body Database Browser
Search: [ help ]  
196000 Izzard (2002 RY237)
Classification: Main-belt Asteroid          SPK-ID: 2196000
Ephemeris | Orbit Diagram | Orbital Elements | Mission Design | Physical Parameters | Discovery Circumstances | Close-Approach Data ]

[ show orbit diagram ]
Orbital Elements at Epoch 2459396.5 (2021-Jul-01.0) TDB
Reference: JPL 23 (heliocentric ecliptic J2000)
 Element Value Uncertainty (1-sigma)   Units 
e .1786884213116133 4.5525e-08  
a 3.068530782323018 2.2806e-08 au
q 2.520219861083628 1.351e-07 au
i 1.411692779925778 5.4672e-06 deg
node 48.0042445080418 0.00018939 deg
peri 29.54267813050734 0.0001903 deg
M 99.99526252801054 1.5558e-05 deg
tp 2458851.155324154100
(2020-Jan-02.65532415)
8.4448e-05 TDB
period 1963.333845436228
5.38
2.1888e-05
5.993e-08
d
yr
n .183361582054331 2.0442e-09 deg/d
Q 3.616841703562408 2.6881e-08 au
  Orbit Determination Parameters
   # obs. used (total)      385  
   data-arc span      8626 days (23.62 yr)  
   first obs. used      1997-10-30  
   last obs. used      2021-06-12  
   planetary ephem.      DE441  
   SB-pert. ephem.      SB441-N16  
   condition code      0  
   norm. resid. RMS      .57592  
   source      ORB  
   producer      Otto Matic  
   solution date      2021-Jul-09 03:02:03  

Additional Information
 Earth MOID = 1.53563 au 
 Jupiter MOID = 1.65005 au 
 T_jup = 3.206 
[ show covariance matrix ]

Ephemeris | Orbit Diagram | Orbital Elements | Mission Design | Physical Parameters | Discovery Circumstances | Close-Approach Data ]

Physical Parameter Table
Parameter Symbol Value Units Sigma Reference Notes
absolute magnitude H 16.01   n/a MPCxxxxx  
diameter diameter 3.714 km 0.850 urn:nasa:pds:neowise_diameters_albedos::2.0[mainbelt] (http://adsabs.harvard.edu/abs/2011ApJ...741...68M)  
geometric albedo albedo 0.067   0.033 urn:nasa:pds:neowise_diameters_albedos::2.0[mainbelt] (http://adsabs.harvard.edu/abs/2011ApJ...741...68M)  

196000 Izzard           Discovered 2002 Sept. 15 by R. Matson on NEAT images taken at Palomar.
Eddie Izzard (b. 1962) is a British stand-up comic and dramatic actor whose writing and performance as an "executive transvestite" in Dress to Kill earned him two Emmys. He co-wrote and starred in The Riches and has prominent roles in Valkyrie and Ocean's 12.
NOTE: some special characters may not display properly (any characters within {} are an attempt to place the proper accent above a character)
Reference: 20090209/MPCPages.arcLast Updated: 2009-02-11

[ show close-approach data ]
Alternate Designations
 2002 RY237 = 1997 UW23 = 2005 GE39 
Ephemeris | Orbit Diagram | Orbital Elements | Mission Design | Physical Parameters | Discovery Circumstances | Close-Approach Data ]
ABOUT SSD CREDITS/AWARDS PRIVACY/COPYRIGHT GLOSSARY LINKS
FirstGov 2021-Jul-25 17:09 UT
(server date/time)  
NASA Home Page
Site Manager:   Ryan S. Park
Webmaster  Alan B. Chamberlin